When you browse on this site, cookies collect data to enhance your experience and personalize the content and advertising you see.
Visit our Privacy Policy to learn more. By continuing to use the site, you agree to this use of cookies and data.
  • In Österreich
  • Länderverzeichnis
  • Für 7 Tage
  • Wassertemperatur
  • Satellitenkarten
  • Wetterkarte
  • News
  • Widgets
  • user-avatar
    Anmelden

    Stündliche Wetter Barra

    Heute, 17 Juli, Mittwoch

    Zeit Temperatur Niederschläge Wind Luftdruck Luftfeuchtigkeit
    00:00 +12°C° 0 mm 2 m/S 752 mmHg 72%
    01:00 +12°C° 0 mm 2 m/S 752 mmHg 72%
    02:00 +12°C° 0 mm 2 m/S 752 mmHg 71%
    03:00 +12°C° 0 mm 2 m/S 751 mmHg 70%
    04:00 +12°C° 0 mm 2 m/S 751 mmHg 70%
    05:00 +12°C° 0 mm 2 m/S 751 mmHg 70%
    06:00 +12°C° 0 mm 2 m/S 752 mmHg 70%
    07:00 +12°C° 0 mm 2 m/S 752 mmHg 71%
    08:00 +15°C° 0 mm 2 m/S 752 mmHg 66%
    09:00 +17°C° 0 mm 2 m/S 753 mmHg 60%
    10:00 +20°C° 0 mm 2 m/S 753 mmHg 53%
    11:00 +21°C° 0 mm 2 m/S 752 mmHg 50%
    12:00 +21°C° 0 mm 3 m/S 752 mmHg 47%
    13:00 +22°C° 0 mm 3 m/S 751 mmHg 44%
    14:00 +21°C° 0 mm 3 m/S 751 mmHg 45%
    15:00 +21°C° 0 mm 3 m/S 751 mmHg 46%
    16:00 +21°C° 0 mm 3 m/S 750 mmHg 47%
    17:00 +19°C° 0 mm 3 m/S 751 mmHg 54%
    18:00 +17°C° 0 mm 2 m/S 751 mmHg 61%
    19:00 +15°C° 0 mm 2 m/S 751 mmHg 68%
    20:00 +14°C° 0 mm 2 m/S 752 mmHg 70%
    21:00 +14°C° 0 mm 2 m/S 752 mmHg 71%
    22:00 +13°C° 0 mm 2 m/S 752 mmHg 73%
    23:00 +13°C° 0 mm 2 m/S 752 mmHg 73%

    Morgen, 18 Juli, Donnerstag

    Zeit Temperatur Niederschläge Wind Luftdruck Luftfeuchtigkeit
    00:00 +13°C° 0 mm 2 m/S 752 mmHg 74%
    01:00 +13°C° 0 mm 2 m/S 751 mmHg 75%
    02:00 +13°C° 0 mm 2 m/S 751 mmHg 76%
    03:00 +13°C° 0 mm 2 m/S 751 mmHg 77%
    04:00 +13°C° 0 mm 2 m/S 751 mmHg 78%
    05:00 +13°C° 0 mm 2 m/S 751 mmHg 81%
    06:00 +13°C° 0 mm 2 m/S 752 mmHg 83%
    07:00 +13°C° 0 mm 2 m/S 752 mmHg 85%
    08:00 +15°C° 0 mm 2 m/S 752 mmHg 77%
    09:00 +18°C° 0 mm 2 m/S 752 mmHg 68%
    10:00 +21°C° 0 mm 2 m/S 752 mmHg 59%
    11:00 +21°C° 0 mm 3 m/S 752 mmHg 56%
    12:00 +22°C° 0 mm 3 m/S 751 mmHg 52%
    13:00 +22°C° 0 mm 4 m/S 751 mmHg 49%
    14:00 +22°C° 0 mm 3 m/S 750 mmHg 49%
    15:00 +21°C° 0 mm 3 m/S 750 mmHg 50%
    16:00 +21°C° 0 mm 3 m/S 750 mmHg 51%
    17:00 +19°C° 0 mm 3 m/S 750 mmHg 58%
    18:00 +17°C° 0 mm 2 m/S 751 mmHg 65%
    19:00 +15°C° 0 mm 1 m/S 751 mmHg 72%
    20:00 +15°C° 0 mm 1 m/S 751 mmHg 74%
    21:00 +14°C° 0 mm 2 m/S 752 mmHg 76%
    22:00 +14°C° 0 mm 2 m/S 752 mmHg 78%
    23:00 +14°C° 0 mm 2 m/S 752 mmHg 79%

    übermorgen, 19 Juli, Freitag

    Zeit Temperatur Niederschläge Wind Luftdruck Luftfeuchtigkeit
    00:00 +13°C° 0 mm 2 m/S 752 mmHg 80%
    01:00 +13°C° 0 mm 2 m/S 752 mmHg 81%
    02:00 +13°C° 0 mm 2 m/S 752 mmHg 82%
    03:00 +13°C° 0 mm 2 m/S 752 mmHg 83%
    04:00 +13°C° 0 mm 2 m/S 751 mmHg 84%
    05:00 +13°C° 0 mm 2 m/S 752 mmHg 85%
    06:00 +13°C° 0 mm 2 m/S 752 mmHg 87%
    07:00 +13°C° 0 mm 2 m/S 752 mmHg 88%
    08:00 +14°C° 0 mm 3 m/S 753 mmHg 79%
    09:00 +17°C° 0 mm 3 m/S 753 mmHg 69%
    10:00 +20°C° 0 mm 3 m/S 753 mmHg 60%
    11:00 +20°C° 0 mm 3 m/S 752 mmHg 56%
    12:00 +21°C° 0 mm 3 m/S 752 mmHg 52%
    13:00 +21°C° 0 mm 4 m/S 751 mmHg 48%
    14:00 +21°C° 0 mm 3 m/S 751 mmHg 49%
    15:00 +21°C° 0 mm 3 m/S 751 mmHg 50%
    16:00 +20°C° 0 mm 3 m/S 751 mmHg 51%
    17:00 +18°C° 0 mm 2 m/S 751 mmHg 59%
    18:00 +16°C° 0 mm 2 m/S 751 mmHg 67%
    19:00 +14°C° 0 mm 1 m/S 751 mmHg 75%
    20:00 +14°C° 0 mm 1 m/S 752 mmHg 76%
    21:00 +14°C° 0 mm 1 m/S 752 mmHg 78%
    22:00 +13°C° 0 mm 2 m/S 752 mmHg 79%
    23:00 +13°C° 0 mm 2 m/S 752 mmHg 80%

    20 Juli, Samstag

    Zeit Temperatur Niederschläge Wind Luftdruck Luftfeuchtigkeit
    00:00 +13°C° 0 mm 2 m/S 752 mmHg 80%
    01:00 +13°C° 0 mm 2 m/S 752 mmHg 80%
    02:00 +13°C° 0 mm 2 m/S 752 mmHg 81%
    03:00 +13°C° 0 mm 2 m/S 752 mmHg 82%
    04:00 +13°C° 0 mm 2 m/S 752 mmHg 82%
    05:00 +13°C° 0 mm 2 m/S 752 mmHg 81%
    06:00 +14°C° 0 mm 2 m/S 752 mmHg 80%
    07:00 +14°C° 0 mm 2 m/S 752 mmHg 79%
    08:00 +16°C° 0 mm 2 m/S 753 mmHg 77%
    09:00 +17°C° 0 mm 2 m/S 753 mmHg 74%
    10:00 +19°C° 0 mm 2 m/S 753 mmHg 72%
    11:00 +20°C° 0 mm 2 m/S 752 mmHg 68%
    12:00 +20°C° 0 mm 3 m/S 751 mmHg 65%
    13:00 +21°C° 0 mm 3 m/S 751 mmHg 62%
    14:00 +21°C° 0 mm 3 m/S 750 mmHg 61%
    15:00 +21°C° 0 mm 3 m/S 750 mmHg 61%
    16:00 +21°C° 0 mm 3 m/S 750 mmHg 60%
    17:00 +19°C° 0 mm 2 m/S 750 mmHg 68%
    18:00 +17°C° 0 mm 2 m/S 750 mmHg 77%
    19:00 +16°C° 0 mm 2 m/S 751 mmHg 85%
    20:00 +15°C° 0 mm 2 m/S 751 mmHg 86%
    21:00 +15°C° 0 mm 2 m/S 751 mmHg 87%
    22:00 +15°C° 0 mm 2 m/S 752 mmHg 89%
    23:00 +15°C° 0 mm 2 m/S 751 mmHg 90%

    21 Juli, Sonntag

    Zeit Temperatur Niederschläge Wind Luftdruck Luftfeuchtigkeit
    00:00 +14°C° 0 mm 2 m/S 751 mmHg 90%
    01:00 +14°C° 0 mm 2 m/S 751 mmHg 91%
    02:00 +14°C° 0 mm 2 m/S 750 mmHg 92%
    03:00 +14°C° 0 mm 2 m/S 750 mmHg 93%
    04:00 +14°C° 0 mm 2 m/S 750 mmHg 93%
    05:00 +14°C° 0 mm 2 m/S 750 mmHg 93%
    06:00 +14°C° 0 mm 2 m/S 750 mmHg 93%
    07:00 +15°C° 0 mm 2 m/S 751 mmHg 93%
    08:00 +17°C° 0 mm 2 m/S 751 mmHg 85%
    09:00 +19°C° 0 mm 2 m/S 751 mmHg 78%
    10:00 +23°C° 0 mm 2 m/S 751 mmHg 70%
    11:00 +23°C° 0 mm 2 m/S 751 mmHg 68%
    12:00 +23°C° 0 mm 2 m/S 750 mmHg 66%
    13:00 +24°C° 0 mm 3 m/S 749 mmHg 65%
    14:00 +24°C° 0 mm 3 m/S 749 mmHg 65%
    15:00 +24°C° 0 mm 3 m/S 748 mmHg 66%
    16:00 +24°C° 0 mm 3 m/S 748 mmHg 66%
    17:00 +21°C° 0 mm 3 m/S 748 mmHg 75%
    18:00 +19°C° 0 mm 3 m/S 749 mmHg 85%
    19:00 +17°C° 0 mm 3 m/S 749 mmHg 94%
    20:00 +17°C° 0 mm 2 m/S 750 mmHg 94%
    21:00 +17°C° 0 mm 2 m/S 750 mmHg 95%
    22:00 +17°C° 0 mm 2 m/S 750 mmHg 95%
    23:00 +17°C° 0 mm 2 m/S 750 mmHg 95%

    22 Juli, Montag

    Zeit Temperatur Niederschläge Wind Luftdruck Luftfeuchtigkeit
    00:00 +17°C° 0 mm 2 m/S 750 mmHg 94%
    01:00 +17°C° 0 mm 2 m/S 750 mmHg 93%
    02:00 +17°C° 0 mm 2 m/S 749 mmHg 93%
    03:00 +18°C° 0 mm 2 m/S 749 mmHg 93%
    04:00 +18°C° 0 mm 2 m/S 749 mmHg 93%
    05:00 +18°C° 0 mm 2 m/S 749 mmHg 93%
    06:00 +18°C° 0 mm 2 m/S 750 mmHg 93%
    07:00 +18°C° 0 mm 2 m/S 750 mmHg 93%
    08:00 +19°C° 0 mm 2 m/S 751 mmHg 89%
    09:00 +20°C° 0 mm 2 m/S 751 mmHg 85%
    10:00 +23°C° 0 mm 2 m/S 751 mmHg 80%
    11:00 +22°C° 0.1 mm 3 m/S 750 mmHg 80%
    12:00 +22°C° 0.1 mm 3 m/S 750 mmHg 80%
    13:00 +22°C° 0.1 mm 3 m/S 749 mmHg 80%
    14:00 +22°C° 0.1 mm 3 m/S 749 mmHg 80%
    15:00 +22°C° 0.1 mm 3 m/S 749 mmHg 79%
    16:00 +24°C° 0.1 mm 3 m/S 748 mmHg 79%
    17:00 +22°C° 0.1 mm 3 m/S 749 mmHg 85%
    18:00 +20°C° 0.1 mm 3 m/S 749 mmHg 90%
    19:00 +19°C° 0.1 mm 2 m/S 750 mmHg 95%
    20:00 +19°C° 0 mm 2 m/S 750 mmHg 96%
    21:00 +19°C° 0 mm 2 m/S 750 mmHg 96%
    22:00 +18°C° 0 mm 2 m/S 751 mmHg 96%
    23:00 +18°C° 0 mm 2 m/S 750 mmHg 96%
    Mehr zeigen